Track STARLINK-1074 now! 10-day predictions STARLINK-1074 is classified as:
1 44957U 20001AV 22138.04169160 .00002820 00000-0 20807-3 0 9997 2 44957 53.0548 73.9732 0001559 74.4779 285.6382 15.06411771130657